SCP
0 0 0 0 0 0 0 0 0 0 0 0 0 0 0 0 0 0 0 0 0 0 0 0 0 0 0 -0 -0 -0 0 0 0 0 0 -0 0 0 0 0 0 0 0 0 0 0 0 0 0 0 0 0 0 0
0 0 0 0 0 0 0 0 0 0 0 0 0 0 0 0 0 0 0 0 0 0 0 0 0 0 0 -0 -0 0 -0 0 0 0 0 0 0 0 0 0 0 0 0 0 0 0 0 0 0 0 0 0 0 0
-0 0 0 0 0 0 0 0 0 0 0 0 0 0 0 0 0 0 0 0 0 0 0 0 0 0 -0 -0 0 -0 0 0 0 0 0 0 0 0 0 0 0 0 0 0 0 0 0 0 0 0 0 0 0 0
0 0 0 0 0 0 0 0 0 0 0 0 0 0 0 0 0 0 0 0 0 0 0 0 0 -0 0 0 0 0 0 0 0 0 0 0 0 0 0 0 0 0 0 0 0 0 0 0 0 0 0 0 0 0
0 0 0 0 0 0 0 0 0 0 0 0 0 0 0 0 0 0 0 0 0 0 0 0 0 0 0 0 0 0 0 0 0 0 0 0 0 0 0 0 0 0 0 0 0 0 0 0 0 0 0 0 0 0
0 0 0 0 0 0 0 0 0 0 0 0 0 0 0 0 0 0 0 0 0 0 0 0 0 0 0 0 -0 0 0 0 0 0 0 0 0 0 0 0 0 0 0 0 0 0 0 0 0 0 0 0 0 0
0 0 0 0 0 0 -0 0 0 0 0 0 0 -0 0 0 0 0 0 0 0 0 0 0 0 0 0 0 0 0 0 0 0 0 0 0 0 0 0 0 0 0 0 0 0 0 0 0 0 0 0 0 0 0
0 0 0 0 0 0 -0 0 0 0 0 0 -0 -0 -0 -0 0 0 0 0 0 0 0 0 0 0 -0 0 0 -0 0 0 0 0 0 0 0 0 0 0 0 0 0 0 0 0 0 0 -0 -0 0 0 0 0
0 0 0 0 0 0 0 0 0 0 0 0 -0 -0 0 -0 0 0 0 0 0 0 0 -0 -0 0 -0 0 0 0 -0 0 0 0 0 0 0 0 0 -0 0 0 0 0 0 0 0 0 0 0 0 0 0 0
0 0 0 0 0 -0 -0 0 0 0 0 0 0 0 0 0 -0 -0 0 0 0 0 0 -0 -0 -0 -0 -0 -0 0 -0 -0 -0 0 -0 -0 -0 -0 -0 -0 -0 0 0 0 0 0 0 0 0 0 0 0 0 0
0 0 0 0 0 -0 -0 0 0 0 0 0 0 0 0 0 0 0 0 0 -0 0 -0 0 -0 -0 -0 -0 -0 -0 -0 -0 -0 0 -0 -0 -0 -0 -0 -0 0 0 0 0 0 0 0 0 0 0 0 0 0 0
0 0 0 0 0 -0 -0 0 -0 0 0 0 0 0 0 0 0 0 0 0 0 -0 -0 -0 0 -0 -0 -0 -0 -0 -0 -0 -0 -0 -0 -0 -0 -0 0 0 0 0 0 -0 0 0 0 0 0 0 0 0 0 0
0 0 0 0 -0 -0 0 -0 0 0 0 0 0 0 0 0 0 0 0 0 0 0 -0 0 0 -0 0 -0 -0 -0 0 0 -0 -0 -0 -0 -0 -0 -0 0 0 0 0 0 0 0 0 0 0 0 0 0 0 0
0 0 0 0 0 0 -0 -0 0 0 0 0 0 0 0 0 0 0 0 0 0 0 0 0 0 -0 -0 0 -0 0 0 0 0 0 -0 -0 -0 -0 -0 0 0 0 0 0 0 0 0 0 0 0 0 0 0 0
0 0 0 0 0 -0 -0 0 0 0 0 0 0 0 0 0 0 0 0 0 0 0 0 0 0 0 0 0 0 0 0 0 0 0 0 0 0 0 0 0 0 0 0 0 0 0 0 0 0 0 0 0 0 0
0 0 0 0 -0 -0 -0 0 0 0 0 0 0 0 0 0 0 0 0 0 0 0 0 0 0 0 0 0 0 0 0 0 0 0 0 0 0 0 0 0 0 0 0 0 0 0 0 0 0 0 0 0 0 0
0 0 -0 -0 -0 -0 0 0 0 0 0 0 0 0 0 0 0 0 0 0 0 0 0 0 0 0 0 0 0 0 0 0 0 0 0 0 0 0 0 0 0 0 0 0 0 0 0 0 0 0 0 0 0 0
0 0 -0 -0 0 0 0 0 0 0 0 0 0 0 0 0 0 0 0 0 0 0 0 0 0 0 0 0 0 0 0 0 0 0 0 0 0 0 0 0 0 0 0 0 0 0 0 0 0 0 0 0 0 0
0 0 -0 -0 0 0 0 0 0 0 0 0 0 0 0 0 0 0 0 0 0 0 0 0 0 0 0 0 0 0 0 0 0 0 0 0 0 0 0 0 0 0 0 0 0 0 0 0 0 0 0 0 0 0
-0 -0 -0 0 0 0 0 0 0 0 0 0 0 0 0 0 0 0 0 0 0 0 0 0 0 0 0 0 0 0 0 0 0 0 0 0 0 0 0 0 0 0 0 0 0 0 0 0 0 0 0 0 0 0
0 0 0 0 0 0 0 0 0 0 0 0 0 0 0 0 0 0 0 0 0 0 0 0 0 0 0 0 0 0 0 0 0 0 0 0 0 0 0 0 0 0 0 0 0 0 0 0 0 0 0 0 0 0
0 0 0 0 0 0 0 0 0 0 0 0 0 0 0 0 0 0 0 0 0 0 0 0 0 0 0 0 0 0 0 0 0 0 0 0 0 0 0 0 0 0 0 0 0 0 0 0 0 0 0 0 0 0
0 0 0 0 0 0 0 0 0 0 0 0 0 0 0 0 0 0 0 0 0 0 0 0 0 0 0 0 0 0 0 0 0 0 0 0 0 0 0 0 0 0 0 0 0 0 0 0 0 0 0 0 0 0
0 0 0 0 0 0 0 0 0 0 0 0 0 0 0 0 0 0 0 0 0 0 0 0 0 0 0 0 0 0 0 0 0 0 0 0 0 0 0 0 0 0 0 0 0 0 0 0 0 0 0 0 0 0
0 0 0 0 0 0 0 0 0 0 0 0 0 0 0 0 0 0 0 0 0 0 0 0 0 0 0 0 0 0 0 0 0 0 0 0 0 0 0 0 0 0 0 0 0 0 0 0 0 0 0 0 0 0
0 0 0 0 0 0 0 0 0 0 0 0 0 0 0 0 0 0 0 0 0 0 0 0 0 0 0 0 0 0 0 0 0 0 0 0 0 0 0 0 0 0 0 0 0 0 0 0 0 0 0 0 0 0
0 0 0 0 0 0 0 0 0 0 0 0 0 0 0 0 0 0 0 0 0 0 0 0 0 0 0 0 0 0 0 0 0 0 0 0 0 0 0 0 0 0 0 0 0 0 0 0 0 0 0 0 0 0
0 0 0 0 0 0 0 0 0 0 0 0 0 0 0 0 0 0 0 0 0 0 0 0 0 0 0 0 0 0 0 0 0 0 0 0 0 0 0 0 0 0 0 0 0 0 0 0 0 0 0 0 0 0
0 0 0 0 0 0 0 0 0 0 0 0 0 0 0 0 0 0 0 0 0 0 0 0 0 0 0 0 0 0 0 0 0 0 0 0 0 0 0 0 0 0 0 0 0 0 0 0 0 0 0 0 0 0
0 0 0 0 0 0 0 0 0 0 0 0 0 0 0 0 0 0 0 0 0 0 0 0 0 0 0 0 0 0 0 0 0 0 0 0 0 0 0 0 0 0 0 0 0 0 0 0 0 0 0 0 0 0
0 0 0 0 0 0 0 0 0 0 0 0 0 0 0 0 0 0 0 0 0 0 0 0 0 0 0 0 0 0 0 0 0 0 0 0 0 0 0 0 0 0 0 0 0 0 0 0 0 0 0 0 0 0
0 0 0 0 0 0 0 0 0 0 0 0 0 0 0 0 0 0 0 0 0 0 0 0 0 0 0 0 0 0 0 0 0 0 0 0 0 0 0 0 0 0 0 0 0 0 0 0 0 0 0 0 0 0
0 0 0 0 0 0 0 0 0 0 0 0 0 0 0 0 0 0 0 0 0 0 0 0 0 0 0 0 0 0 0 0 0 0 0 0 0 0 0 0 0 0 0 0 0 0 0 0 0 0 0 0 0 0
Wind_Speed_500mb
88 87 76 67 60 54 49 41 34 32 26 22 26 16 24 18 17 16 13 10 12 8 8 8 4 4 6 2 5 15 9 2 4 5 3 3 5 4 3 4 7 8 8 6 1 3 8 9 5 2 3 4 2 18
89 92 82 72 62 54 51 43 37 30 27 27 18 16 19 16 16 18 16 11 14 9 7 7 6 3 1 4 4 10 6 6 7 5 1 5 3 4 4 5 5 3 4 4 5 6 2 8 9 5 4 4 6 15
91 95 88 75 64 55 53 45 40 38 28 19 17 13 14 14 16 18 18 9 10 8 1 2 6 5 4 7 9 2 2 11 10 12 7 4 5 2 5 5 5 7 5 2 4 6 4 10 16 11 13 22 19 25
94 91 90 80 64 56 53 50 43 30 23 18 17 15 14 15 16 18 12 8 11 2 4 3 7 4 5 5 6 5 15 19 20 14 6 3 4 6 4 1 2 4 9 9 5 5 9 14 20 26 35 35 35 34
96 89 90 79 66 60 56 49 39 31 24 19 19 18 17 18 13 10 7 9 12 5 1 1 5 5 2 4 8 14 20 14 7 5 4 3 5 6 5 3 4 10 3 2 6 5 6 10 22 28 35 38 36 34
93 90 87 81 73 68 60 49 38 32 24 18 19 21 17 13 9 7 3 11 14 11 3 0 1 1 3 12 18 19 10 3 4 4 1 3 4 5 4 3 3 7 12 7 7 10 19 25 24 24 24 25 24 21
91 90 88 80 74 71 63 51 40 35 26 18 22 17 12 12 14 6 4 1 13 12 4 3 3 3 9 16 11 8 7 4 2 2 2 5 7 3 3 4 4 3 11 17 18 18 16 19 15 19 17 15 12 12
92 88 92 83 76 71 65 52 43 39 28 22 22 14 15 17 14 13 14 8 13 7 5 4 2 1 4 6 7 12 9 6 10 3 4 9 13 4 6 5 3 6 6 6 10 16 18 17 20 16 13 11 8 8
95 89 90 87 79 73 64 51 45 44 28 26 18 11 5 8 9 6 10 11 13 6 3 4 5 5 3 3 6 8 10 4 9 6 5 9 3 3 4 6 8 6 6 6 5 9 17 18 19 16 11 6 10 17
95 91 88 87 81 73 63 53 47 44 32 34 19 7 6 4 8 14 6 4 6 6 6 2 6 4 1 3 2 5 6 1 4 5 19 4 6 7 7 4 4 9 9 11 7 9 11 11 8 4 5 12 10 6
93 89 86 85 76 68 62 54 50 44 43 33 14 8 8 16 10 4 2 3 1 3 5 7 6 4 4 3 3 1 3 1 4 7 5 5 6 2 4 7 5 6 6 9 15 18 17 11 5 4 4 5 7 8
92 88 83 80 72 65 59 56 57 58 35 25 14 16 15 7 3 4 3 2 2 6 10 5 7 6 5 4 3 0 4 4 3 13 6 5 6 14 17 9 6 8 17 14 23 23 19 15 10 8 7 5 7 15
93 89 80 74 68 62 59 62 62 44 36 29 9 9 7 3 6 9 8 6 2 16 18 12 6 5 4 4 8 3 7 3 8 5 4 7 13 17 14 4 14 21 28 24 18 17 18 15 9 6 11 16 21 27
91 85 77 72 67 63 59 62 65 46 22 8 13 5 8 4 8 6 1 2 7 6 30 21 12 3 5 7 4 6 4 3 6 7 5 5 18 14 23 33 38 38 30 28 24 17 12 12 15 18 23 28 33 35
90 82 78 74 68 61 63 57 63 44 8 7 9 7 7 3 3 3 8 10 11 28 27 15 12 5 5 7 5 5 8 4 8 8 5 7 18 32 42 44 41 35 28 20 16 15 16 19 22 28 33 39 45 49
91 81 79 74 64 68 66 62 50 27 3 6 5 6 4 5 3 6 12 11 27 35 13 6 6 7 4 7 5 9 8 7 6 2 4 16 31 32 32 28 22 15 12 14 18 23 29 34 37 40 42 44 45 46
102 80 86 76 75 70 58 62 28 11 7 5 3 10 8 4 7 11 14 17 41 22 2 4 7 10 6 4 5 5 7 4 13 20 22 29 28 20 12 7 10 16 19 23 27 32 36 39 42 42 41 37 36 37
81 92 88 87 86 74 67 30 13 13 6 8 8 10 14 7 11 15 13 34 24 10 10 4 10 4 9 7 6 4 6 20 19 18 22 21 14 7 4 8 15 21 26 29 31 34 36 36 36 36 36 36 33 32
95 103 98 94 87 64 17 20 7 9 5 8 11 16 11 9 10 16 20 43 16 11 8 9 5 5 5 2 2 12 22 15 16 16 16 13 7 6 10 16 20 22 25 28 31 33 35 35 35 37 38 39 36 36
100 103 96 88 68 13 13 10 14 7 11 13 15 18 11 9 15 17 38 28 19 7 4 4 8 3 6 13 19 23 21 19 16 15 11 6 2 10 14 17 22 27 29 30 29 27 24 24 26 28 30 34 37 39
105 96 97 84 27 13 11 13 12 11 16 11 21 15 10 18 14 20 23 19 10 6 5 5 5 11 17 20 20 18 14 11 9 7 6 5 10 15 19 23 23 23 22 21 21 22 23 26 29 31 33 36 38 41
97 110 88 48 8 9 9 8 15 20 10 20 21 12 11 8 12 18 22 10 6 8 8 14 23 25 21 17 14 10 7 6 7 5 4 7 10 14 16 17 17 17 18 20 23 25 28 31 35 38 42 45 48 50
108 82 46 13 8 5 11 18 6 8 7 16 16 8 6 6 11 26 12 7 9 13 16 22 23 22 17 13 8 6 4 3 2 4 7 11 14 17 18 18 18 18 18 21 27 33 38 41 45 49 54 57 61 63
78 27 13 11 8 7 16 5 7 9 11 7 5 6 4 7 19 5 4 9 10 18 23 26 28 26 22 16 10 7 4 1 5 9 13 16 18 17 15 16 16 21 26 31 37 41 44 47 50 52 54 56 58 60
19 13 13 8 9 12 7 5 3 4 5 4 7 5 7 11 4 4 6 9 20 24 25 25 27 26 23 19 14 9 4 2 7 9 12 13 13 11 12 18 24 28 33 36 39 43 46 48 50 51 53 55 57 59
8 7 9 15 13 12 12 10 12 10 7 5 5 11 9 6 5 9 5 10 18 25 24 24 23 22 18 15 11 7 3 5 8 7 7 6 8 11 17 21 27 32 38 42 46 49 51 52 53 54 54 56 60 64
9 6 9 13 16 19 10 9 12 9 8 11 8 11 6 8 12 4 5 9 14 19 18 17 17 17 15 12 9 5 3 4 4 4 2 5 12 18 23 29 33 35 38 41 45 48 49 51 53 55 58 59 60 63
8 18 15 26 12 6 8 6 9 12 8 17 30 8 14 7 4 8 9 11 19 21 20 17 15 14 13 10 7 4 3 3 3 1 3 7 12 16 21 26 31 35 38 39 40 41 44 47 50 52 53 54 54 52
8 24 35 11 10 11 9 6 5 4 9 20 9 5 8 8 12 14 18 19 20 21 21 18 16 15 13 10 8 7 5 4 4 5 5 7 13 18 21 23 24 25 26 28 32 35 37 40 42 42 43 44 44 44
11 22 14 8 7 5 5 6 7 14 16 21 19 18 14 15 19 21 22 22 21 20 20 18 18 17 15 14 11 9 7 7 8 7 7 9 12 15 18 21 23 25 26 28 29 30 30 32 34 36 40 44 47 49
23 10 14 14 10 6 18 31 30 27 19 16 16 13 19 16 21 23 23 23 22 21 19 18 17 15 12 10 9 8 7 9 11 11 12 13 14 16 18 21 23 24 25 28 31 33 35 37 40 41 44 46 48 51
9 10 14 8 9 26 17 7 7 8 11 7 7 10 12 10 11 22 26 24 21 20 18 17 17 16 15 13 11 10 9 10 10 10 11 12 13 16 17 18 21 25 28 31 34 37 40 43 45 48 50 51 52 54
14 20 19 17 13 12 14 11 6 9 10 7 5 9 8 10 9 16 28 27 22 19 18 19 20 20 18 16 16 15 14 13 12 13 13 14 16 17 18 20 23 27 32 35 38 41 44 47 49 50 52 54 56 59
Wind_Direction_500mb
197 195 199 201 207 211 212 214 224 234 243 248 259 247 235 246 263 275 291 273 245 238 259 238 214 272 311 350 334 340 311 322 272 269 293 354 310 27 15 48 134 138 132 180 11 55 261 8 65 159 272 292 357 99
196 196 198 200 205 210 213 215 220 227 231 234 250 241 235 254 259 279 290 292 250 222 229 233 200 186 14 337 328 319 314 295 324 295 294 288 271 291 311 107 333 115 126 166 166 221 319 38 91 52 65 37 71 108
197 197 199 201 205 210 211 209 209 220 222 228 236 231 236 252 270 281 284 274 219 233 189 257 267 248 244 310 307 283 323 337 311 334 305 297 300 291 7 47 73 321 76 245 113 347 95 43 72 51 84 103 107 125
196 197 199 200 202 203 199 204 208 205 205 210 223 226 244 262 282 279 267 234 231 247 216 228 266 271 271 293 291 303 301 317 303 305 273 302 313 19 339 259 206 200 180 188 122 103 131 78 85 94 96 100 106 106
196 196 196 196 194 194 201 203 207 203 204 214 223 236 255 275 279 259 249 238 217 258 152 230 238 248 294 260 289 306 296 292 284 252 263 1 314 330 210 318 10 346 348 69 153 87 91 102 111 107 106 102 101 102
194 195 195 193 190 195 202 199 207 222 211 219 229 242 263 260 213 205 247 218 221 208 211 77 320 253 240 271 287 302 318 265 227 292 257 248 269 306 299 70 2 55 48 60 111 70 109 127 130 126 116 100 93 83
193 194 192 192 190 198 203 201 204 225 226 214 230 249 231 206 202 211 252 226 189 185 188 89 194 251 257 289 295 318 346 3 108 289 268 258 214 286 255 85 5 121 70 74 85 104 105 131 122 125 121 106 83 60
191 191 190 192 192 198 203 202 208 221 231 205 221 232 208 206 208 242 252 227 185 195 195 110 250 180 243 279 305 341 343 341 17 38 350 7 309 299 42 338 18 72 97 71 77 73 121 126 142 142 132 109 92 33
189 187 189 191 194 200 203 203 205 218 221 185 198 209 134 184 209 232 216 193 190 226 204 187 167 187 197 295 329 326 349 331 350 44 37 342 299 49 222 33 46 75 62 43 132 116 102 119 121 121 110 64 6 336
186 186 187 190 195 200 204 201 204 218 183 173 174 172 208 190 181 148 150 179 202 217 206 138 144 153 132 223 61 331 4 7 16 303 328 60 278 315 320 274 97 83 71 53 119 129 143 126 121 109 329 323 330 352
184 184 185 189 191 192 198 195 202 172 164 170 174 195 163 148 153 181 143 142 242 212 206 161 165 147 158 165 173 60 196 306 62 290 95 320 313 327 12 332 271 254 198 89 84 102 105 110 107 105 77 24 4 353
180 182 182 185 186 190 191 191 184 177 172 160 150 137 146 174 150 100 220 334 177 218 156 166 159 136 140 132 173 309 140 52 233 329 62 334 260 337 314 306 248 180 154 126 115 107 101 96 89 81 75 45 350 331
179 178 178 179 185 185 185 183 182 171 149 138 149 152 154 160 50 163 215 274 273 174 173 156 133 133 111 105 84 75 64 208 304 47 218 229 335 339 325 178 142 135 135 127 112 101 104 105 91 28 351 337 330 325
176 175 175 178 182 182 182 183 175 160 153 150 159 165 167 226 243 190 226 90 138 167 151 143 114 116 95 55 338 84 247 37 44 38 262 271 7 50 100 112 118 120 123 120 112 99 71 32 8 355 342 332 328 324
171 170 174 177 173 173 178 176 169 168 164 168 151 197 207 239 217 194 137 126 131 155 147 120 95 112 34 76 33 103 28 332 182 218 225 51 103 112 111 112 110 110 106 96 66 40 17 359 344 337 329 325 320 315
166 166 172 169 166 169 172 167 169 176 235 176 168 113 155 152 184 186 171 150 153 157 140 117 117 63 5 121 71 223 122 224 249 208 79 129 134 123 117 113 106 86 51 22 4 351 343 337 330 326 322 319 317 316
166 163 169 163 163 165 158 163 161 209 212 182 183 203 179 144 142 164 166 165 159 151 170 126 82 191 128 43 298 188 199 231 105 103 118 137 142 135 121 73 13 4 358 348 338 331 326 324 322 320 319 321 321 320
160 162 161 162 161 157 155 161 176 177 168 190 166 186 186 159 146 158 164 162 158 169 154 189 130 108 169 169 271 243 134 115 103 104 117 130 132 120 61 5 349 341 332 327 324 323 324 324 325 326 326 326 328 320
162 159 165 165 159 144 135 181 190 163 164 177 162 162 167 158 152 164 165 166 162 156 147 146 86 202 234 104 34 134 132 133 132 118 118 114 96 24 346 325 319 321 322 325 328 331 331 329 329 330 331 331 334 335
160 163 160 156 150 119 115 129 167 170 172 169 154 152 146 141 148 160 162 165 162 175 201 169 204 189 152 130 135 137 133 133 137 142 145 148 319 311 317 328 335 338 337 332 327 324 324 327 327 330 332 331 331 334
159 159 158 155 134 103 111 146 141 154 148 156 146 140 109 123 119 152 167 161 185 218 200 191 184 163 150 138 133 125 131 133 141 155 173 274 318 336 337 332 326 321 321 327 334 340 341 343 344 344 342 339 336 333
153 162 151 155 112 97 94 121 135 129 142 135 139 129 132 148 146 154 165 187 226 209 190 172 163 153 150 141 131 125 113 112 109 85 40 351 331 321 314 320 325 332 342 350 350 350 348 344 341 339 337 335 333 333
152 148 143 111 120 104 129 135 115 122 120 160 138 108 131 141 164 151 186 217 211 206 188 180 177 180 180 167 143 100 115 125 62 10 349 338 335 336 340 343 348 349 350 350 352 348 345 343 341 340 339 338 337 337
144 128 129 130 124 123 145 126 128 123 121 155 129 104 115 133 156 195 224 193 203 192 184 185 185 182 189 197 190 190 196 264 349 357 348 343 343 342 342 343 348 350 349 346 342 340 337 336 337 337 337 337 338 339
115 160 154 103 139 121 103 139 136 98 118 162 113 129 156 152 136 190 220 183 189 185 185 187 192 197 201 206 205 204 209 340 334 330 331 329 331 336 347 346 344 344 341 337 337 340 341 341 343 344 346 346 345 344
108 129 123 158 162 142 175 140 175 161 133 116 96 115 148 159 162 238 147 181 186 187 185 186 185 186 194 206 214 221 270 311 329 333 326 335 341 339 338 335 338 343 342 341 343 345 346 346 346 346 348 350 350 347
117 149 139 128 134 140 115 93 131 120 142 162 161 154 163 186 229 128 184 184 179 182 183 182 185 188 189 194 201 216 264 330 330 307 328 342 342 342 340 343 344 345 349 352 351 349 348 348 350 350 351 351 350 348
127 151 136 151 134 160 132 121 145 184 174 149 134 167 185 204 169 165 172 166 173 174 172 171 172 172 175 180 180 163 124 138 172 218 316 337 341 345 347 352 353 353 353 350 349 348 350 350 351 351 349 349 350 351
117 134 134 81 100 75 60 51 85 112 122 157 115 116 134 129 149 149 150 151 155 161 163 166 173 172 168 160 153 152 138 106 56 37 12 3 0 354 356 357 355 354 353 354 356 356 355 355 354 353 352 352 353 355
127 142 107 85 68 79 48 96 131 131 129 135 121 119 116 124 140 140 144 149 150 152 154 153 155 160 163 164 154 138 117 81 69 58 48 34 23 11 10 9 8 5 4 2 0 1 359 357 357 355 354 353 352 352
133 114 83 63 83 78 118 111 111 112 109 95 105 124 125 128 144 146 146 147 149 151 152 152 147 146 142 133 122 110 80 64 57 55 52 44 37 30 23 16 12 8 6 5 5 3 360 357 355 353 352 351 350 348
91 76 120 110 115 139 125 118 109 85 82 75 78 100 118 124 151 160 164 162 162 158 155 154 150 145 139 133 130 128 116 104 96 87 75 61 46 35 25 17 13 10 7 3 1 358 355 354 353 352 351 350 348 347
95 89 90 104 125 176 167 135 98 95 84 89 108 145 141 147 149 169 176 172 169 163 160 155 150 148 143 137 132 127 122 114 105 88 73 54 42 30 20 14 9 6 3 1 357 356 354 353 350 348 347 347 347 346
Wind_Speed_850mb
88 87 76 67 60 54 49 41 34 32 26 22 26 16 24 18 17 16 13 10 12 8 8 8 4 4 6 2 5 15 9 2 4 5 3 3 5 4 3 4 7 8 8 6 1 3 8 9 5 2 3 4 2 18
89 92 82 72 62 54 51 43 37 30 27 27 18 16 19 16 16 18 16 11 14 9 7 7 6 3 1 4 4 10 6 6 7 5 1 5 3 4 4 5 5 3 4 4 5 6 2 8 9 5 4 4 6 15
91 95 88 75 64 55 53 45 40 38 28 19 17 13 14 14 16 18 18 9 10 8 1 2 6 5 4 7 9 2 2 11 10 12 7 4 5 2 5 5 5 7 5 2 4 6 4 10 16 11 13 22 19 25
94 91 90 80 64 56 53 50 43 30 23 18 17 15 14 15 16 18 12 8 11 2 4 3 7 4 5 5 6 5 15 19 20 14 6 3 4 6 4 1 2 4 9 9 5 5 9 14 20 26 35 35 35 34
96 89 90 79 66 60 56 49 39 31 24 19 19 18 17 18 13 10 7 9 12 5 1 1 5 5 2 4 8 14 20 14 7 5 4 3 5 6 5 3 4 10 3 2 6 5 6 10 22 28 35 38 36 34
93 90 87 81 73 68 60 49 38 32 24 18 19 21 17 13 9 7 3 11 14 11 3 0 1 1 3 12 18 19 10 3 4 4 1 3 4 5 4 3 3 7 12 7 7 10 19 25 24 24 24 25 24 21
91 90 88 80 74 71 63 51 40 35 26 18 22 17 12 12 14 6 4 1 13 12 4 3 3 3 9 16 11 8 7 4 2 2 2 5 7 3 3 4 4 3 11 17 18 18 16 19 15 19 17 15 12 12
92 88 92 83 76 71 65 52 43 39 28 22 22 14 15 17 14 13 14 8 13 7 5 4 2 1 4 6 7 12 9 6 10 3 4 9 13 4 6 5 3 6 6 6 10 16 18 17 20 16 13 11 8 8
95 89 90 87 79 73 64 51 45 44 28 26 18 11 5 8 9 6 10 11 13 6 3 4 5 5 3 3 6 8 10 4 9 6 5 9 3 3 4 6 8 6 6 6 5 9 17 18 19 16 11 6 10 17
95 91 88 87 81 73 63 53 47 44 32 34 19 7 6 4 8 14 6 4 6 6 6 2 6 4 1 3 2 5 6 1 4 5 19 4 6 7 7 4 4 9 9 11 7 9 11 11 8 4 5 12 10 6
93 89 86 85 76 68 62 54 50 44 43 33 14 8 8 16 10 4 2 3 1 3 5 7 6 4 4 3 3 1 3 1 4 7 5 5 6 2 4 7 5 6 6 9 15 18 17 11 5 4 4 5 7 8
92 88 83 80 72 65 59 56 57 58 35 25 14 16 15 7 3 4 3 2 2 6 10 5 7 6 5 4 3 0 4 4 3 13 6 5 6 14 17 9 6 8 17 14 23 23 19 15 10 8 7 5 7 15
93 89 80 74 68 62 59 62 62 44 36 29 9 9 7 3 6 9 8 6 2 16 18 12 6 5 4 4 8 3 7 3 8 5 4 7 13 17 14 4 14 21 28 24 18 17 18 15 9 6 11 16 21 27
91 85 77 72 67 63 59 62 65 46 22 8 13 5 8 4 8 6 1 2 7 6 30 21 12 3 5 7 4 6 4 3 6 7 5 5 18 14 23 33 38 38 30 28 24 17 12 12 15 18 23 28 33 35
90 82 78 74 68 61 63 57 63 44 8 7 9 7 7 3 3 3 8 10 11 28 27 15 12 5 5 7 5 5 8 4 8 8 5 7 18 32 42 44 41 35 28 20 16 15 16 19 22 28 33 39 45 49
91 81 79 74 64 68 66 62 50 27 3 6 5 6 4 5 3 6 12 11 27 35 13 6 6 7 4 7 5 9 8 7 6 2 4 16 31 32 32 28 22 15 12 14 18 23 29 34 37 40 42 44 45 46
102 80 86 76 75 70 58 62 28 11 7 5 3 10 8 4 7 11 14 17 41 22 2 4 7 10 6 4 5 5 7 4 13 20 22 29 28 20 12 7 10 16 19 23 27 32 36 39 42 42 41 37 36 37
81 92 88 87 86 74 67 30 13 13 6 8 8 10 14 7 11 15 13 34 24 10 10 4 10 4 9 7 6 4 6 20 19 18 22 21 14 7 4 8 15 21 26 29 31 34 36 36 36 36 36 36 33 32
95 103 98 94 87 64 17 20 7 9 5 8 11 16 11 9 10 16 20 43 16 11 8 9 5 5 5 2 2 12 22 15 16 16 16 13 7 6 10 16 20 22 25 28 31 33 35 35 35 37 38 39 36 36
100 103 96 88 68 13 13 10 14 7 11 13 15 18 11 9 15 17 38 28 19 7 4 4 8 3 6 13 19 23 21 19 16 15 11 6 2 10 14 17 22 27 29 30 29 27 24 24 26 28 30 34 37 39
105 96 97 84 27 13 11 13 12 11 16 11 21 15 10 18 14 20 23 19 10 6 5 5 5 11 17 20 20 18 14 11 9 7 6 5 10 15 19 23 23 23 22 21 21 22 23 26 29 31 33 36 38 41
97 110 88 48 8 9 9 8 15 20 10 20 21 12 11 8 12 18 22 10 6 8 8 14 23 25 21 17 14 10 7 6 7 5 4 7 10 14 16 17 17 17 18 20 23 25 28 31 35 38 42 45 48 50
108 82 46 13 8 5 11 18 6 8 7 16 16 8 6 6 11 26 12 7 9 13 16 22 23 22 17 13 8 6 4 3 2 4 7 11 14 17 18 18 18 18 18 21 27 33 38 41 45 49 54 57 61 63
78 27 13 11 8 7 16 5 7 9 11 7 5 6 4 7 19 5 4 9 10 18 23 26 28 26 22 16 10 7 4 1 5 9 13 16 18 17 15 16 16 21 26 31 37 41 44 47 50 52 54 56 58 60
19 13 13 8 9 12 7 5 3 4 5 4 7 5 7 11 4 4 6 9 20 24 25 25 27 26 23 19 14 9 4 2 7 9 12 13 13 11 12 18 24 28 33 36 39 43 46 48 50 51 53 55 57 59
8 7 9 15 13 12 12 10 12 10 7 5 5 11 9 6 5 9 5 10 18 25 24 24 23 22 18 15 11 7 3 5 8 7 7 6 8 11 17 21 27 32 38 42 46 49 51 52 53 54 54 56 60 64
9 6 9 13 16 19 10 9 12 9 8 11 8 11 6 8 12 4 5 9 14 19 18 17 17 17 15 12 9 5 3 4 4 4 2 5 12 18 23 29 33 35 38 41 45 48 49 51 53 55 58 59 60 63
8 18 15 26 12 6 8 6 9 12 8 17 30 8 14 7 4 8 9 11 19 21 20 17 15 14 13 10 7 4 3 3 3 1 3 7 12 16 21 26 31 35 38 39 40 41 44 47 50 52 53 54 54 52
8 24 35 11 10 11 9 6 5 4 9 20 9 5 8 8 12 14 18 19 20 21 21 18 16 15 13 10 8 7 5 4 4 5 5 7 13 18 21 23 24 25 26 28 32 35 37 40 42 42 43 44 44 44
11 22 14 8 7 5 5 6 7 14 16 21 19 18 14 15 19 21 22 22 21 20 20 18 18 17 15 14 11 9 7 7 8 7 7 9 12 15 18 21 23 25 26 28 29 30 30 32 34 36 40 44 47 49
23 10 14 14 10 6 18 31 30 27 19 16 16 13 19 16 21 23 23 23 22 21 19 18 17 15 12 10 9 8 7 9 11 11 12 13 14 16 18 21 23 24 25 28 31 33 35 37 40 41 44 46 48 51
9 10 14 8 9 26 17 7 7 8 11 7 7 10 12 10 11 22 26 24 21 20 18 17 17 16 15 13 11 10 9 10 10 10 11 12 13 16 17 18 21 25 28 31 34 37 40 43 45 48 50 51 52 54
14 20 19 17 13 12 14 11 6 9 10 7 5 9 8 10 9 16 28 27 22 19 18 19 20 20 18 16 16 15 14 13 12 13 13 14 16 17 18 20 23 27 32 35 38 41 44 47 49 50 52 54 56 59
Wind_Direction_850mb
197 195 199 201 207 211 212 214 224 234 243 248 259 247 235 246 263 275 291 273 245 238 259 238 214 272 311 350 334 340 311 322 272 269 293 354 310 27 15 48 134 138 132 180 11 55 261 8 65 159 272 292 357 99
196 196 198 200 205 210 213 215 220 227 231 234 250 241 235 254 259 279 290 292 250 222 229 233 200 186 14 337 328 319 314 295 324 295 294 288 271 291 311 107 333 115 126 166 166 221 319 38 91 52 65 37 71 108
197 197 199 201 205 210 211 209 209 220 222 228 236 231 236 252 270 281 284 274 219 233 189 257 267 248 244 310 307 283 323 337 311 334 305 297 300 291 7 47 73 321 76 245 113 347 95 43 72 51 84 103 107 125
196 197 199 200 202 203 199 204 208 205 205 210 223 226 244 262 282 279 267 234 231 247 216 228 266 271 271 293 291 303 301 317 303 305 273 302 313 19 339 259 206 200 180 188 122 103 131 78 85 94 96 100 106 106
196 196 196 196 194 194 201 203 207 203 204 214 223 236 255 275 279 259 249 238 217 258 152 230 238 248 294 260 289 306 296 292 284 252 263 1 314 330 210 318 10 346 348 69 153 87 91 102 111 107 106 102 101 102
194 195 195 193 190 195 202 199 207 222 211 219 229 242 263 260 213 205 247 218 221 208 211 77 320 253 240 271 287 302 318 265 227 292 257 248 269 306 299 70 2 55 48 60 111 70 109 127 130 126 116 100 93 83
193 194 192 192 190 198 203 201 204 225 226 214 230 249 231 206 202 211 252 226 189 185 188 89 194 251 257 289 295 318 346 3 108 289 268 258 214 286 255 85 5 121 70 74 85 104 105 131 122 125 121 106 83 60
191 191 190 192 192 198 203 202 208 221 231 205 221 232 208 206 208 242 252 227 185 195 195 110 250 180 243 279 305 341 343 341 17 38 350 7 309 299 42 338 18 72 97 71 77 73 121 126 142 142 132 109 92 33
189 187 189 191 194 200 203 203 205 218 221 185 198 209 134 184 209 232 216 193 190 226 204 187 167 187 197 295 329 326 349 331 350 44 37 342 299 49 222 33 46 75 62 43 132 116 102 119 121 121 110 64 6 336
186 186 187 190 195 200 204 201 204 218 183 173 174 172 208 190 181 148 150 179 202 217 206 138 144 153 132 223 61 331 4 7 16 303 328 60 278 315 320 274 97 83 71 53 119 129 143 126 121 109 329 323 330 352
184 184 185 189 191 192 198 195 202 172 164 170 174 195 163 148 153 181 143 142 242 212 206 161 165 147 158 165 173 60 196 306 62 290 95 320 313 327 12 332 271 254 198 89 84 102 105 110 107 105 77 24 4 353
180 182 182 185 186 190 191 191 184 177 172 160 150 137 146 174 150 100 220 334 177 218 156 166 159 136 140 132 173 309 140 52 233 329 62 334 260 337 314 306 248 180 154 126 115 107 101 96 89 81 75 45 350 331
179 178 178 179 185 185 185 183 182 171 149 138 149 152 154 160 50 163 215 274 273 174 173 156 133 133 111 105 84 75 64 208 304 47 218 229 335 339 325 178 142 135 135 127 112 101 104 105 91 28 351 337 330 325
176 175 175 178 182 182 182 183 175 160 153 150 159 165 167 226 243 190 226 90 138 167 151 143 114 116 95 55 338 84 247 37 44 38 262 271 7 50 100 112 118 120 123 120 112 99 71 32 8 355 342 332 328 324
171 170 174 177 173 173 178 176 169 168 164 168 151 197 207 239 217 194 137 126 131 155 147 120 95 112 34 76 33 103 28 332 182 218 225 51 103 112 111 112 110 110 106 96 66 40 17 359 344 337 329 325 320 315
166 166 172 169 166 169 172 167 169 176 235 176 168 113 155 152 184 186 171 150 153 157 140 117 117 63 5 121 71 223 122 224 249 208 79 129 134 123 117 113 106 86 51 22 4 351 343 337 330 326 322 319 317 316
166 163 169 163 163 165 158 163 161 209 212 182 183 203 179 144 142 164 166 165 159 151 170 126 82 191 128 43 298 188 199 231 105 103 118 137 142 135 121 73 13 4 358 348 338 331 326 324 322 320 319 321 321 320
160 162 161 162 161 157 155 161 176 177 168 190 166 186 186 159 146 158 164 162 158 169 154 189 130 108 169 169 271 243 134 115 103 104 117 130 132 120 61 5 349 341 332 327 324 323 324 324 325 326 326 326 328 320
162 159 165 165 159 144 135 181 190 163 164 177 162 162 167 158 152 164 165 166 162 156 147 146 86 202 234 104 34 134 132 133 132 118 118 114 96 24 346 325 319 321 322 325 328 331 331 329 329 330 331 331 334 335
160 163 160 156 150 119 115 129 167 170 172 169 154 152 146 141 148 160 162 165 162 175 201 169 204 189 152 130 135 137 133 133 137 142 145 148 319 311 317 328 335 338 337 332 327 324 324 327 327 330 332 331 331 334
159 159 158 155 134 103 111 146 141 154 148 156 146 140 109 123 119 152 167 161 185 218 200 191 184 163 150 138 133 125 131 133 141 155 173 274 318 336 337 332 326 321 321 327 334 340 341 343 344 344 342 339 336 333
153 162 151 155 112 97 94 121 135 129 142 135 139 129 132 148 146 154 165 187 226 209 190 172 163 153 150 141 131 125 113 112 109 85 40 351 331 321 314 320 325 332 342 350 350 350 348 344 341 339 337 335 333 333
152 148 143 111 120 104 129 135 115 122 120 160 138 108 131 141 164 151 186 217 211 206 188 180 177 180 180 167 143 100 115 125 62 10 349 338 335 336 340 343 348 349 350 350 352 348 345 343 341 340 339 338 337 337
144 128 129 130 124 123 145 126 128 123 121 155 129 104 115 133 156 195 224 193 203 192 184 185 185 182 189 197 190 190 196 264 349 357 348 343 343 342 342 343 348 350 349 346 342 340 337 336 337 337 337 337 338 339
115 160 154 103 139 121 103 139 136 98 118 162 113 129 156 152 136 190 220 183 189 185 185 187 192 197 201 206 205 204 209 340 334 330 331 329 331 336 347 346 344 344 341 337 337 340 341 341 343 344 346 346 345 344
108 129 123 158 162 142 175 140 175 161 133 116 96 115 148 159 162 238 147 181 186 187 185 186 185 186 194 206 214 221 270 311 329 333 326 335 341 339 338 335 338 343 342 341 343 345 346 346 346 346 348 350 350 347
117 149 139 128 134 140 115 93 131 120 142 162 161 154 163 186 229 128 184 184 179 182 183 182 185 188 189 194 201 216 264 330 330 307 328 342 342 342 340 343 344 345 349 352 351 349 348 348 350 350 351 351 350 348
127 151 136 151 134 160 132 121 145 184 174 149 134 167 185 204 169 165 172 166 173 174 172 171 172 172 175 180 180 163 124 138 172 218 316 337 341 345 347 352 353 353 353 350 349 348 350 350 351 351 349 349 350 351
117 134 134 81 100 75 60 51 85 112 122 157 115 116 134 129 149 149 150 151 155 161 163 166 173 172 168 160 153 152 138 106 56 37 12 3 0 354 356 357 355 354 353 354 356 356 355 355 354 353 352 352 353 355
127 142 107 85 68 79 48 96 131 131 129 135 121 119 116 124 140 140 144 149 150 152 154 153 155 160 163 164 154 138 117 81 69 58 48 34 23 11 10 9 8 5 4 2 0 1 359 357 357 355 354 353 352 352
133 114 83 63 83 78 118 111 111 112 109 95 105 124 125 128 144 146 146 147 149 151 152 152 147 146 142 133 122 110 80 64 57 55 52 44 37 30 23 16 12 8 6 5 5 3 360 357 355 353 352 351 350 348
91 76 120 110 115 139 125 118 109 85 82 75 78 100 118 124 151 160 164 162 162 158 155 154 150 145 139 133 130 128 116 104 96 87 75 61 46 35 25 17 13 10 7 3 1 358 355 354 353 352 351 350 348 347
95 89 90 104 125 176 167 135 98 95 84 89 108 145 141 147 149 169 176 172 169 163 160 155 150 148 143 137 132 127 122 114 105 88 73 54 42 30 20 14 9 6 3 1 357 356 354 353 350 348 347 347 347 346